date,City,No. Stations,Air Quality,Index Value,Prominent Pollutant
2021-06-03,Prayagraj,1.0,Moderate,169,PM10
2021-06-04,Prayagraj,2.0,Moderate,128,PM10
2021-06-05,Prayagraj,2.0,Moderate,126,"O3, PM10"
2021-06-07,Prayagraj,1.0,Satisfactory,73,PM10
2021-06-08,Prayagraj,2.0,Satisfactory,92,"O3, PM10"
2021-06-09,Prayagraj,2.0,Satisfactory,96,PM10
2021-06-10,Prayagraj,1.0,Poor,297,PM10
2021-06-11,Prayagraj,1.0,Very Poor,387,PM10
2021-06-12,Prayagraj,2.0,Good,49,PM10
2021-06-13,Prayagraj,2.0,Good,29,PM10
2021-06-14,Prayagraj,2.0,Good,26,PM2.5
2021-06-15,Prayagraj,2.0,Good,30,PM10
2021-06-16,Prayagraj,2.0,Good,44,PM10
2021-06-18,Prayagraj,1.0,Good,29,PM2.5
2021-06-19,Prayagraj,2.0,Good,21,CO
2021-06-20,Prayagraj,2.0,Good,40,PM10
2021-06-21,Prayagraj,2.0,Satisfactory,64,"PM10, PM2.5"
2021-06-22,Prayagraj,2.0,Satisfactory,71,PM10
2021-06-23,Prayagraj,2.0,Satisfactory,64,"PM10, PM2.5"
2021-06-24,Prayagraj,2.0,Satisfactory,60,PM2.5
2021-06-25,Prayagraj,1.0,Good,43,PM2.5
2021-06-26,Prayagraj,2.0,Good,42,"PM10, PM2.5"
2021-06-27,Prayagraj,2.0,Good,42,"PM10, PM2.5"
2021-06-28,Prayagraj,2.0,Satisfactory,88,PM2.5
2021-06-29,Prayagraj,2.0,Moderate,120,PM2.5
2021-06-30,Prayagraj,1.0,Satisfactory,85,PM10
2021-07-01,Prayagraj,2.0,Satisfactory,80,PM10
2021-07-02,Prayagraj,2.0,Satisfactory,56,PM10
2021-07-03,Prayagraj,2.0,Satisfactory,60,PM10
2021-07-04,Prayagraj,2.0,Satisfactory,85,PM10
2021-07-05,Prayagraj,2.0,Satisfactory,96,PM10
2021-07-06,Prayagraj,2.0,Satisfactory,80,PM10
2021-07-07,Prayagraj,2.0,Satisfactory,80,PM10
2021-07-08,Prayagraj,2.0,Satisfactory,98,PM10
2021-07-09,Prayagraj,2.0,Satisfactory,64,PM10
2021-07-10,Prayagraj,2.0,Satisfactory,98,"PM10, PM2.5"
2021-07-11,Prayagraj,2.0,Moderate,138,"PM10, PM2.5"
2021-07-12,Prayagraj,2.0,Satisfactory,67,PM2.5
2021-07-13,Prayagraj,2.0,Satisfactory,60,PM10
2021-07-14,Prayagraj,2.0,Satisfactory,51,PM10
2021-07-15,Prayagraj,2.0,Satisfactory,52,PM10
2021-07-16,Prayagraj,2.0,Satisfactory,52,PM10
2021-07-17,Prayagraj,2.0,Satisfactory,62,PM10
2021-07-18,Prayagraj,2.0,Good,36,PM10
2021-07-19,Prayagraj,1.0,Good,40,PM10
2021-07-20,Prayagraj,2.0,Good,26,"CO, PM10"
2021-07-21,Prayagraj,1.0,Good,12,CO
2021-07-22,Prayagraj,1.0,Good,37,PM10
2021-07-24,Prayagraj,1.0,Good,41,PM10
2021-07-25,Prayagraj,2.0,Good,41,PM10
2021-07-26,Prayagraj,2.0,Good,44,PM10
2021-07-27,Prayagraj,3.0,Good,28,PM10
2021-07-28,Prayagraj,3.0,Good,33,PM10
2021-07-29,Prayagraj,3.0,Good,28,PM10
2021-07-30,Prayagraj,3.0,Good,30,PM10
2021-07-31,Prayagraj,3.0,Good,32,PM10
2021-08-01,Prayagraj,1.0,Satisfactory,66,PM10
2021-08-02,Prayagraj,3.0,Good,21,"CO, PM10"
2021-08-03,Prayagraj,3.0,Good,36,PM10
2021-08-04,Prayagraj,3.0,Good,48,PM10
2021-08-05,Prayagraj,3.0,Good,46,PM10
2021-08-06,Prayagraj,3.0,Good,35,"O3, PM10"
2021-08-07,Prayagraj,3.0,Good,48,PM10
2021-08-08,Prayagraj,3.0,Good,44,PM10
2021-08-09,Prayagraj,2.0,Good,29,"CO, PM2.5"
2021-08-10,Prayagraj,2.0,Good,20,CO
2021-08-11,Prayagraj,2.0,Good,30,"NH3, PM10"
2021-08-12,Prayagraj,3.0,Satisfactory,59,PM10
2021-08-13,Prayagraj,3.0,Satisfactory,82,PM10
2021-08-14,Prayagraj,3.0,Satisfactory,77,PM10
2021-08-15,Prayagraj,3.0,Satisfactory,77,PM10
2021-08-16,Prayagraj,3.0,Satisfactory,85,PM10
2021-08-17,Prayagraj,3.0,Satisfactory,76,PM10
2021-08-18,Prayagraj,3.0,Satisfactory,64,PM10
2021-08-19,Prayagraj,2.0,Good,45,"O3, PM2.5"
2021-08-20,Prayagraj,3.0,Good,38,"PM10, PM2.5"
2021-08-21,Prayagraj,3.0,Good,39,"PM10, PM2.5"
2021-08-22,Prayagraj,3.0,Good,37,"PM10, PM2.5"
2021-08-23,Prayagraj,3.0,Good,39,PM10
2021-08-24,Prayagraj,3.0,Satisfactory,53,PM10
2021-08-25,Prayagraj,3.0,Good,34,PM10
2021-08-26,Prayagraj,3.0,Good,44,PM10
2021-08-27,Prayagraj,3.0,Satisfactory,62,PM10
2021-08-28,Prayagraj,3.0,Satisfactory,60,PM10
2021-08-29,Prayagraj,3.0,Satisfactory,66,PM10
2021-08-30,Prayagraj,2.0,Good,26,"O3, PM2.5"
2021-08-31,Prayagraj,2.0,Good,28,PM2.5
2021-09-01,Prayagraj,3.0,Good,45,PM10
2021-09-02,Prayagraj,3.0,Satisfactory,66,"PM10, PM2.5"
2021-09-03,Prayagraj,3.0,Good,49,"PM10, PM2.5"
2021-09-04,Prayagraj,2.0,Good,42,PM10
2021-09-05,Prayagraj,3.0,Good,46,PM10
2021-09-06,Prayagraj,3.0,Moderate,138,PM2.5
2021-09-07,Prayagraj,3.0,Good,39,"PM10, PM2.5"
2021-09-08,Prayagraj,3.0,Good,32,"CO, PM10"
2021-09-09,Prayagraj,3.0,Good,29,"NO2, O3, PM10"
2021-09-10,Prayagraj,3.0,Good,46,PM10
2021-09-11,Prayagraj,3.0,Satisfactory,52,"PM10, PM2.5"
2021-09-12,Prayagraj,2.0,Good,38,PM10
2021-09-13,Prayagraj,3.0,Satisfactory,52,PM10
2021-09-14,Prayagraj,3.0,Good,25,"NO2, PM10"
2021-09-15,Prayagraj,3.0,Good,19,"CO, O3, PM10"
2021-09-16,Prayagraj,3.0,Good,22,"NO2, PM10, SO2"
2021-09-17,Prayagraj,3.0,Good,23,"NO2, PM10"
2021-09-18,Prayagraj,2.0,Good,22,"NO2, PM10"
2021-09-19,Prayagraj,3.0,Satisfactory,70,"PM10, PM2.5"
2021-09-20,Prayagraj,2.0,Satisfactory,54,"PM10, PM2.5"
2021-09-21,Prayagraj,3.0,Satisfactory,52,"PM10, PM2.5"
2021-09-22,Prayagraj,3.0,Satisfactory,61,"PM10, PM2.5"
2021-09-23,Prayagraj,2.0,Satisfactory,52,PM10
2021-09-24,Prayagraj,3.0,Good,36,"PM10, PM2.5"
2021-09-25,Prayagraj,3.0,Good,38,PM10
2021-09-26,Prayagraj,3.0,Satisfactory,54,PM10
2021-09-27,Prayagraj,2.0,Satisfactory,68,"PM10, PM2.5"
2021-09-28,Prayagraj,3.0,Good,38,"PM10, PM2.5"
2021-09-29,Prayagraj,3.0,Good,48,"PM10, PM2.5"
2021-09-30,Prayagraj,2.0,Good,44,PM10
2021-10-01,Prayagraj,3.0,Good,47,PM10
2021-10-02,Prayagraj,3.0,Good,38,PM10
2021-10-03,Prayagraj,3.0,Good,44,"PM10, PM2.5"
2021-10-04,Prayagraj,3.0,Good,44,PM10
2021-10-05,Prayagraj,2.0,Satisfactory,71,"PM10, PM2.5"
2021-10-06,Prayagraj,3.0,Satisfactory,76,"PM10, PM2.5"
2021-10-07,Prayagraj,3.0,Satisfactory,69,"PM10, PM2.5"
2021-10-08,Prayagraj,3.0,Moderate,103,"PM10, PM2.5"
2021-10-09,Prayagraj,2.0,Moderate,138,"PM10, PM2.5"
2021-10-10,Prayagraj,3.0,Moderate,145,"PM10, PM2.5"
2021-10-11,Prayagraj,3.0,Moderate,146,"PM10, PM2.5"
2021-10-12,Prayagraj,3.0,Moderate,179,PM2.5
2021-10-13,Prayagraj,2.0,Moderate,186,PM2.5
2021-10-14,Prayagraj,3.0,Moderate,161,PM2.5
2021-10-15,Prayagraj,3.0,Poor,217,PM2.5
2021-10-16,Prayagraj,3.0,Moderate,193,PM2.5
2021-10-17,Prayagraj,2.0,Satisfactory,92,"PM10, PM2.5"
2021-10-18,Prayagraj,2.0,Satisfactory,57,"O3, PM10"
2021-10-19,Prayagraj,3.0,Good,30,"CO, PM10"
2021-10-20,Prayagraj,3.0,Good,46,"PM10, PM2.5"
2021-10-21,Prayagraj,3.0,Satisfactory,88,"PM10, PM2.5"
2021-10-22,Prayagraj,3.0,Moderate,109,"PM10, PM2.5"
2021-10-23,Prayagraj,3.0,Moderate,115,"PM10, PM2.5"
2021-10-24,Prayagraj,3.0,Moderate,122,"PM10, PM2.5"
2021-10-25,Prayagraj,3.0,Moderate,185,PM2.5
2021-10-26,Prayagraj,3.0,Moderate,175,PM2.5
2021-10-27,Prayagraj,3.0,Moderate,144,"PM10, PM2.5"
2021-10-28,Prayagraj,3.0,Moderate,168,"PM10, PM2.5"
2021-10-29,Prayagraj,3.0,Poor,223,PM2.5
2021-10-30,Prayagraj,3.0,Poor,213,PM2.5
2021-10-31,Prayagraj,3.0,Moderate,143,PM2.5
2021-11-01,Prayagraj,3.0,Moderate,172,PM2.5
2021-11-02,Prayagraj,3.0,Poor,255,PM2.5
2021-11-03,Prayagraj,3.0,Poor,232,PM2.5
2021-11-04,Prayagraj,3.0,Poor,267,PM2.5
2021-11-05,Prayagraj,3.0,Very Poor,311,PM2.5
2021-11-06,Prayagraj,3.0,Poor,259,PM2.5
2021-11-07,Prayagraj,3.0,Very Poor,301,PM2.5
2021-11-08,Prayagraj,3.0,Very Poor,387,PM2.5
2021-11-09,Prayagraj,3.0,Very Poor,368,PM2.5
2021-11-10,Prayagraj,3.0,Very Poor,356,PM2.5
2021-11-11,Prayagraj,3.0,Poor,247,PM2.5
2021-11-12,Prayagraj,3.0,Poor,237,PM2.5
2021-11-13,Prayagraj,3.0,Poor,268,PM2.5
2021-11-14,Prayagraj,3.0,Poor,259,PM2.5
2021-11-15,Prayagraj,3.0,Poor,266,PM2.5
2021-11-16,Prayagraj,3.0,Poor,274,PM2.5
2021-11-17,Prayagraj,3.0,Poor,232,PM2.5
2021-11-18,Prayagraj,3.0,Poor,255,PM2.5
2021-11-19,Prayagraj,3.0,Poor,250,PM2.5
2021-11-20,Prayagraj,3.0,Poor,259,PM2.5
2021-11-21,Prayagraj,3.0,Poor,224,PM2.5
2021-11-22,Prayagraj,3.0,Poor,230,"O3, PM2.5"
2021-11-23,Prayagraj,2.0,Moderate,115,"PM10, PM2.5"
2021-11-24,Prayagraj,3.0,Moderate,175,PM2.5
2021-11-25,Prayagraj,3.0,Poor,231,PM2.5
2021-11-26,Prayagraj,3.0,Poor,247,PM2.5
2021-11-27,Prayagraj,2.0,Very Poor,312,PM2.5
2021-11-28,Prayagraj,3.0,Very Poor,311,PM2.5
2021-11-29,Prayagraj,3.0,Poor,262,PM2.5
2021-11-30,Prayagraj,2.0,Poor,210,PM2.5
2021-12-01,Prayagraj,3.0,Poor,272,PM2.5
2021-12-02,Prayagraj,3.0,Poor,274,PM2.5
2021-12-03,Prayagraj,3.0,Poor,221,"PM10, PM2.5"
2021-12-04,Prayagraj,3.0,Poor,232,PM2.5
2021-12-05,Prayagraj,3.0,Poor,262,PM2.5
2021-12-06,Prayagraj,3.0,Moderate,162,PM2.5
2021-12-07,Prayagraj,3.0,Moderate,127,PM2.5
2021-12-08,Prayagraj,3.0,Satisfactory,77,"PM10, PM2.5"
2021-12-09,Prayagraj,3.0,Moderate,115,"PM10, PM2.5"
2021-12-10,Prayagraj,3.0,Moderate,130,PM2.5
2021-12-11,Prayagraj,3.0,Moderate,117,PM2.5
2021-12-12,Prayagraj,3.0,Moderate,130,PM2.5
2021-12-13,Prayagraj,3.0,Poor,209,PM2.5
2021-12-14,Prayagraj,3.0,Poor,232,PM2.5
2021-12-15,Prayagraj,3.0,Poor,214,"PM10, PM2.5"
2021-12-16,Prayagraj,3.0,Poor,232,PM2.5
2021-12-17,Prayagraj,3.0,Moderate,192,PM2.5
2021-12-18,Prayagraj,3.0,Satisfactory,97,"PM10, PM2.5"
2021-12-19,Prayagraj,3.0,Satisfactory,89,PM10
2021-12-20,Prayagraj,3.0,Moderate,152,PM2.5
2021-12-21,Prayagraj,3.0,Poor,211,PM2.5
2021-12-22,Prayagraj,3.0,Poor,209,PM2.5
2021-12-23,Prayagraj,3.0,Poor,262,PM2.5
2021-12-24,Prayagraj,3.0,Poor,261,PM2.5
2021-12-25,Prayagraj,3.0,Poor,234,PM2.5
2021-12-26,Prayagraj,3.0,Poor,267,PM2.5
2021-12-27,Prayagraj,3.0,Poor,255,PM2.5
2021-12-28,Prayagraj,3.0,Poor,261,PM2.5
2021-12-29,Prayagraj,3.0,Moderate,111,PM2.5
2021-12-30,Prayagraj,2.0,Good,50,PM2.5
2021-12-31,Prayagraj,3.0,Satisfactory,96,PM2.5
2022-01-01,Prayagraj,3.0,Satisfactory,99,PM2.5
2022-01-02,Prayagraj,3.0,Moderate,142,PM2.5
2022-01-03,Prayagraj,3.0,Poor,232,PM2.5
2022-01-04,Prayagraj,3.0,Poor,232,PM2.5
2022-01-05,Prayagraj,3.0,Poor,290,PM2.5
2022-01-06,Prayagraj,3.0,Poor,282,PM2.5
2022-01-07,Prayagraj,3.0,Poor,205,PM2.5
2022-01-08,Prayagraj,2.0,Satisfactory,82,PM2.5
2022-01-09,Prayagraj,3.0,Satisfactory,81,PM2.5
2022-01-10,Prayagraj,3.0,Good,45,PM2.5
2022-01-11,Prayagraj,3.0,Moderate,105,"O3, PM2.5"
2022-01-12,Prayagraj,3.0,Satisfactory,85,"O3, PM2.5"
2022-01-13,Prayagraj,3.0,Satisfactory,95,"PM10, PM2.5"
2022-01-14,Prayagraj,3.0,Moderate,120,PM2.5
2022-01-15,Prayagraj,3.0,Moderate,150,PM2.5
2022-01-16,Prayagraj,3.0,Moderate,110,PM2.5
2022-01-17,Prayagraj,3.0,Moderate,125,PM2.5
2022-01-18,Prayagraj,3.0,Moderate,181,PM2.5
2022-01-19,Prayagraj,3.0,Moderate,145,PM2.5
2022-01-20,Prayagraj,3.0,Moderate,198,PM2.5
2022-01-21,Prayagraj,3.0,Poor,264,PM2.5
2022-01-22,Prayagraj,1.0,Poor,253,PM2.5
2022-01-23,Prayagraj,2.0,Moderate,154,PM2.5
2022-01-24,Prayagraj,3.0,Moderate,141,PM2.5
2022-01-25,Prayagraj,3.0,Moderate,102,PM10
2022-01-26,Prayagraj,3.0,Satisfactory,79,PM10
2022-01-27,Prayagraj,3.0,Satisfactory,98,PM10
2022-01-28,Prayagraj,3.0,Satisfactory,95,"PM10, PM2.5"
2022-01-29,Prayagraj,3.0,Satisfactory,88,"PM10, PM2.5"
2022-01-30,Prayagraj,2.0,Satisfactory,84,PM10
2022-01-31,Prayagraj,2.0,Moderate,166,PM2.5
2022-02-01,Prayagraj,2.0,Moderate,198,PM2.5
2022-02-02,Prayagraj,3.0,Moderate,126,"PM10, PM2.5"
2022-02-03,Prayagraj,3.0,Poor,205,PM2.5
2022-02-04,Prayagraj,2.0,Moderate,112,"PM10, PM2.5"
2022-02-05,Prayagraj,3.0,Satisfactory,87,PM10
2022-02-06,Prayagraj,3.0,Satisfactory,89,"PM10, PM2.5"
2022-02-07,Prayagraj,3.0,Moderate,143,PM2.5
2022-02-08,Prayagraj,3.0,Moderate,157,PM2.5
2022-02-09,Prayagraj,3.0,Moderate,133,PM2.5
2022-02-10,Prayagraj,3.0,Satisfactory,96,PM10
2022-02-11,Prayagraj,3.0,Satisfactory,70,"O3, PM10"
2022-02-12,Prayagraj,3.0,Satisfactory,77,"O3, PM10"
2022-02-13,Prayagraj,2.0,Satisfactory,88,PM10
2022-02-14,Prayagraj,3.0,Moderate,126,"PM10, PM2.5"
2022-02-15,Prayagraj,3.0,Moderate,143,PM2.5
2022-02-16,Prayagraj,3.0,Moderate,142,"O3, PM2.5"
2022-02-17,Prayagraj,3.0,Moderate,103,PM10
2022-02-18,Prayagraj,3.0,Satisfactory,89,PM10
2022-02-19,Prayagraj,3.0,Moderate,104,PM10
2022-02-20,Prayagraj,3.0,Satisfactory,93,PM10
2022-02-21,Prayagraj,3.0,Satisfactory,93,PM10
2022-02-22,Prayagraj,3.0,Moderate,104,PM10
2022-02-23,Prayagraj,3.0,Moderate,101,PM10
2022-02-24,Prayagraj,2.0,Moderate,122,PM10
2022-02-25,Prayagraj,3.0,Moderate,118,"PM10, PM2.5"
2022-02-26,Prayagraj,1.0,Moderate,125,PM10
2022-02-27,Prayagraj,3.0,Moderate,121,"O3, PM10"
2022-02-28,Prayagraj,3.0,Satisfactory,84,PM10
2022-03-01,Prayagraj,3.0,Satisfactory,80,PM10
2022-03-02,Prayagraj,3.0,Moderate,104,PM10
2022-03-03,Prayagraj,3.0,Moderate,105,PM10
2022-03-04,Prayagraj,3.0,Moderate,126,PM10
2022-03-05,Prayagraj,3.0,Moderate,104,PM10
2022-03-06,Prayagraj,2.0,Satisfactory,85,PM10
2022-03-07,Prayagraj,3.0,Moderate,129,"O3, PM10"
2022-03-08,Prayagraj,3.0,Moderate,110,PM10
2022-03-09,Prayagraj,3.0,Satisfactory,99,PM10
2022-03-10,Prayagraj,2.0,Satisfactory,90,PM10
2022-03-11,Prayagraj,1.0,Moderate,105,PM10
2022-03-12,Prayagraj,3.0,Moderate,105,PM10
2022-03-13,Prayagraj,3.0,Moderate,101,PM10
2022-03-14,Prayagraj,3.0,Moderate,111,PM10
2022-03-15,Prayagraj,3.0,Moderate,145,PM10
2022-03-16,Prayagraj,3.0,Moderate,127,PM10
2022-03-17,Prayagraj,3.0,Moderate,156,PM10
2022-03-18,Prayagraj,3.0,Moderate,161,PM2.5
2022-03-19,Prayagraj,3.0,Moderate,121,"PM10, PM2.5"
2022-03-20,Prayagraj,3.0,Moderate,123,"PM10, PM2.5"
2022-03-21,Prayagraj,3.0,Moderate,113,"PM10, PM2.5"
2022-03-22,Prayagraj,3.0,Moderate,130,PM10
2022-03-23,Prayagraj,3.0,Moderate,112,PM10
2022-03-24,Prayagraj,3.0,Moderate,116,PM10
2022-03-25,Prayagraj,3.0,Moderate,124,PM10
2022-03-26,Prayagraj,2.0,Moderate,114,PM10
2022-03-27,Prayagraj,3.0,Moderate,124,PM10
2022-03-28,Prayagraj,3.0,Moderate,125,PM10
2022-03-29,Prayagraj,3.0,Moderate,119,PM10
2022-03-30,Prayagraj,3.0,Moderate,129,PM10
2022-03-31,Prayagraj,3.0,Moderate,140,PM10
2022-04-01,Prayagraj,3.0,Moderate,156,PM10
2022-04-02,Prayagraj,3.0,Moderate,141,PM10
2022-04-03,Prayagraj,3.0,Moderate,128,PM10
2022-04-04,Prayagraj,3.0,Moderate,123,PM10
2022-04-05,Prayagraj,3.0,Moderate,133,PM10
2022-04-06,Prayagraj,3.0,Moderate,135,PM10
2022-04-07,Prayagraj,3.0,Moderate,117,PM10
2022-04-08,Prayagraj,3.0,Moderate,110,PM10
2022-04-09,Prayagraj,3.0,Moderate,120,PM10
2022-04-10,Prayagraj,3.0,Moderate,132,PM10
2022-04-11,Prayagraj,3.0,Moderate,161,PM10
2022-04-12,Prayagraj,2.0,Moderate,128,PM10
2022-04-13,Prayagraj,3.0,Moderate,140,PM10
2022-04-14,Prayagraj,3.0,Moderate,131,PM10
2022-04-15,Prayagraj,1.0,Moderate,120,PM10
2022-04-16,Prayagraj,3.0,Moderate,144,PM10
2022-04-17,Prayagraj,3.0,Moderate,136,PM10
2022-04-18,Prayagraj,3.0,Moderate,136,PM10
2022-04-19,Prayagraj,2.0,Moderate,121,"PM10, PM2.5"
2022-04-20,Prayagraj,3.0,Moderate,142,"PM10, PM2.5"
2022-04-21,Prayagraj,2.0,Satisfactory,90,"PM10, PM2.5"
2022-04-22,Prayagraj,3.0,Moderate,140,PM10
2022-04-23,Prayagraj,3.0,Moderate,132,PM10
2022-04-24,Prayagraj,3.0,Moderate,123,PM10
2022-04-25,Prayagraj,3.0,Moderate,131,PM10
2022-04-26,Prayagraj,3.0,Moderate,130,PM10
2022-04-27,Prayagraj,3.0,Moderate,141,PM10
2022-04-28,Prayagraj,1.0,Moderate,126,PM10
2022-04-29,Prayagraj,2.0,Moderate,138,PM10
2022-04-30,Prayagraj,2.0,Moderate,122,PM10
2022-05-01,Prayagraj,3.0,Moderate,133,PM10
2022-05-02,Prayagraj,3.0,Moderate,105,PM10
2022-05-03,Prayagraj,3.0,Moderate,110,PM10
2022-05-04,Prayagraj,3.0,Satisfactory,90,PM10
2022-05-05,Prayagraj,2.0,Moderate,109,PM10
2022-05-06,Prayagraj,3.0,Satisfactory,93,PM10
2022-05-07,Prayagraj,3.0,Satisfactory,100,PM10
2022-05-08,Prayagraj,3.0,Moderate,105,PM10
2022-05-09,Prayagraj,3.0,Satisfactory,92,PM10
2022-05-10,Prayagraj,3.0,Satisfactory,87,PM10
2022-05-11,Prayagraj,3.0,Satisfactory,78,PM10
2022-05-12,Prayagraj,3.0,Satisfactory,72,PM10
2022-05-13,Prayagraj,2.0,Satisfactory,90,PM10
2022-05-14,Prayagraj,3.0,Moderate,130,PM10
2022-05-15,Prayagraj,3.0,Moderate,111,PM10
2022-05-16,Prayagraj,2.0,Moderate,118,PM10
2022-05-17,Prayagraj,3.0,Moderate,141,PM10
2022-05-18,Prayagraj,3.0,Moderate,146,PM10
2022-05-19,Prayagraj,3.0,Moderate,167,PM10
2022-05-20,Prayagraj,2.0,Moderate,126,PM10
2022-05-21,Prayagraj,3.0,Moderate,122,PM10
2022-05-22,Prayagraj,2.0,Moderate,110,"PM10, PM2.5"
2022-05-23,Prayagraj,1.0,Moderate,107,PM10
2022-05-24,Prayagraj,1.0,Poor,244,PM10
2022-05-25,Prayagraj,3.0,Moderate,133,PM10
2022-05-26,Prayagraj,2.0,Satisfactory,100,"O3, PM10"
2022-05-27,Prayagraj,3.0,Moderate,143,PM10
2022-05-28,Prayagraj,3.0,Moderate,113,PM10
2022-05-29,Prayagraj,3.0,Moderate,129,PM10
2022-05-30,Prayagraj,3.0,Moderate,119,PM10
2022-05-31,Prayagraj,3.0,Moderate,144,PM10
2022-06-01,Prayagraj,3.0,Moderate,148,PM10
2022-06-02,Prayagraj,3.0,Moderate,155,PM10
2022-06-03,Prayagraj,2.0,Moderate,167,PM10
2022-06-04,Prayagraj,2.0,Moderate,140,"O3, PM10"
2022-06-05,Prayagraj,2.0,Moderate,126,PM10
2022-06-06,Prayagraj,2.0,Moderate,134,"O3, PM10"
2022-06-07,Prayagraj,1.0,Moderate,137,PM10
2022-06-08,Prayagraj,1.0,Moderate,167,PM10
2022-06-09,Prayagraj,2.0,Poor,224,PM10
2022-06-10,Prayagraj,3.0,Moderate,138,PM10
2022-06-11,Prayagraj,3.0,Moderate,149,PM10
2022-06-12,Prayagraj,3.0,Moderate,113,PM10
2022-06-13,Prayagraj,3.0,Moderate,134,PM10
2022-06-14,Prayagraj,3.0,Satisfactory,97,PM10
2022-06-15,Prayagraj,2.0,Moderate,109,PM10
2022-06-16,Prayagraj,3.0,Satisfactory,70,PM10
2022-06-17,Prayagraj,3.0,Satisfactory,51,"PM10, SO2"
2022-06-18,Prayagraj,3.0,Satisfactory,54,"PM10, SO2"
2022-06-19,Prayagraj,3.0,Good,50,"PM10, SO2"
2022-06-21,Prayagraj,2.0,Good,44,SO2
2022-06-22,Prayagraj,2.0,Satisfactory,62,"O3, PM10"
2022-06-23,Prayagraj,1.0,Satisfactory,54,PM10
2022-06-24,Prayagraj,2.0,Satisfactory,53,"PM10, SO2"
2022-06-25,Prayagraj,2.0,Satisfactory,66,"O3, PM10"
2022-06-26,Prayagraj,2.0,Satisfactory,59,PM10
2022-06-27,Prayagraj,2.0,Satisfactory,61,"PM10, SO2"
2022-06-28,Prayagraj,3.0,Satisfactory,73,PM10
2022-06-29,Prayagraj,2.0,Good,49,"PM10, SO2"
2022-06-30,Prayagraj,3.0,Good,47,"PM10, SO2"
2022-07-01,Prayagraj,2.0,Satisfactory,65,"PM10, SO2"
2022-07-02,Prayagraj,2.0,Satisfactory,58,"PM10, SO2"
2022-07-03,Prayagraj,3.0,Satisfactory,86,"PM10, SO2"
2022-07-04,Prayagraj,3.0,Satisfactory,95,"PM10, SO2"
2022-07-05,Prayagraj,3.0,Moderate,104,"PM10, PM2.5, SO2"
2022-07-06,Prayagraj,2.0,Moderate,103,"PM10, SO2"
2022-07-07,Prayagraj,3.0,Satisfactory,84,"PM10, SO2"
2022-07-08,Prayagraj,3.0,Satisfactory,95,"PM10, SO2"
2022-07-09,Prayagraj,3.0,Satisfactory,77,"PM10, PM2.5, SO2"
2022-07-10,Prayagraj,3.0,Satisfactory,82,"PM10, PM2.5, SO2"
2022-07-11,Prayagraj,3.0,Satisfactory,99,"PM10, SO2"
2022-07-12,Prayagraj,1.0,Moderate,103,PM10
2022-07-13,Prayagraj,2.0,Satisfactory,84,"PM10, SO2"
2022-07-14,Prayagraj,1.0,Moderate,103,PM10
2022-07-15,Prayagraj,2.0,Satisfactory,86,"PM10, SO2"
2022-07-16,Prayagraj,2.0,Satisfactory,77,"PM10, SO2"
2022-07-17,Prayagraj,2.0,Satisfactory,74,"PM10, SO2"
2022-07-18,Prayagraj,2.0,Satisfactory,68,"PM10, SO2"
2022-07-19,Prayagraj,2.0,Moderate,106,PM10
2022-07-20,Prayagraj,3.0,Satisfactory,85,"PM10, SO2"
2022-07-21,Prayagraj,3.0,Satisfactory,55,"PM2.5, SO2"
2022-07-22,Prayagraj,3.0,Satisfactory,69,"PM10, PM2.5, SO2"
2022-07-23,Prayagraj,3.0,Satisfactory,85,"PM10, PM2.5, SO2"
2022-07-24,Prayagraj,3.0,Satisfactory,85,"PM10, PM2.5, SO2"
2022-07-25,Prayagraj,3.0,Satisfactory,87,"PM10, SO2"
2022-07-26,Prayagraj,3.0,Satisfactory,82,"PM10, PM2.5, SO2"
2022-07-27,Prayagraj,3.0,Satisfactory,64,"PM10, PM2.5, SO2"
2022-07-28,Prayagraj,2.0,Satisfactory,60,"PM10, PM2.5"
2022-07-29,Prayagraj,2.0,Satisfactory,66,"PM10, SO2"
2022-07-30,Prayagraj,3.0,Satisfactory,56,"PM10, SO2"
2022-07-31,Prayagraj,2.0,Satisfactory,80,"PM10, SO2"
2022-08-01,Prayagraj,3.0,Satisfactory,65,"PM10, SO2"
2022-08-02,Prayagraj,3.0,Satisfactory,80,"PM10, SO2"
2022-08-03,Prayagraj,1.0,Satisfactory,63,PM10
2022-08-04,Prayagraj,2.0,Satisfactory,89,"PM10, SO2"
2022-08-05,Prayagraj,3.0,Satisfactory,82,"PM10, SO2"
2022-08-06,Prayagraj,2.0,Moderate,138,"O3, SO2"
2022-08-07,Prayagraj,3.0,Satisfactory,93,"O3, PM10, SO2"
2022-08-08,Prayagraj,3.0,Moderate,108,"O3, PM10, SO2"
2022-08-09,Prayagraj,2.0,Moderate,179,"O3, PM10"
2022-08-10,Prayagraj,3.0,Satisfactory,66,"O3, PM2.5, SO2"
2022-08-11,Prayagraj,3.0,Satisfactory,60,"PM10, PM2.5, SO2"
2022-08-12,Prayagraj,3.0,Satisfactory,70,"O3, PM10, SO2"
2022-08-13,Prayagraj,2.0,Satisfactory,73,"O3, SO2"
2022-08-14,Prayagraj,3.0,Satisfactory,67,"PM10, PM2.5, SO2"
2022-08-15,Prayagraj,2.0,Satisfactory,58,"PM10, SO2"
2022-08-16,Prayagraj,3.0,Satisfactory,53,"PM10, SO2"
2022-08-17,Prayagraj,2.0,Satisfactory,64,"PM10, SO2"
2022-08-18,Prayagraj,2.0,Satisfactory,66,"PM10, SO2"
2022-08-19,Prayagraj,1.0,Satisfactory,72,PM10
2022-08-20,Prayagraj,2.0,Satisfactory,62,"PM10, SO2"
2022-08-21,Prayagraj,3.0,Satisfactory,73,"PM10, SO2"
2022-08-22,Prayagraj,3.0,Satisfactory,77,"O3, PM10, SO2"
2022-08-23,Prayagraj,3.0,Satisfactory,72,"PM2.5, SO2"
2022-08-24,Prayagraj,3.0,Satisfactory,82,"PM10, PM2.5, SO2"
2022-08-25,Prayagraj,3.0,Satisfactory,75,"PM10, PM2.5, SO2"
2022-08-26,Prayagraj,3.0,Satisfactory,81,"PM10, PM2.5, SO2"
2022-08-27,Prayagraj,3.0,Satisfactory,91,"PM10, PM2.5, SO2"
2022-08-28,Prayagraj,3.0,Moderate,108,"PM10, PM2.5, SO2"
2022-08-29,Prayagraj,3.0,Satisfactory,89,"PM2.5, SO2"
2022-08-30,Prayagraj,3.0,Satisfactory,97,"PM10, PM2.5, SO2"
2022-08-31,Prayagraj,3.0,Satisfactory,80,"PM10, PM2.5, SO2"
2022-09-01,Prayagraj,2.0,Satisfactory,80,"PM10, SO2"
2022-09-02,Prayagraj,3.0,Satisfactory,74,"PM10, PM2.5, SO2"
2022-09-03,Prayagraj,3.0,Satisfactory,63,"PM10, PM2.5, SO2"
2022-09-04,Prayagraj,3.0,Good,44,"PM10, PM2.5, SO2"
2022-09-05,Prayagraj,2.0,Good,46,"PM2.5, SO2"
2022-09-06,Prayagraj,2.0,Satisfactory,60,"PM10, PM2.5"
2022-09-07,Prayagraj,3.0,Satisfactory,70,"PM10, PM2.5"
2022-09-08,Prayagraj,3.0,Satisfactory,99,PM2.5
2022-09-09,Prayagraj,3.0,Satisfactory,72,"PM10, PM2.5"
2022-09-10,Prayagraj,3.0,Satisfactory,80,"PM10, PM2.5"
2022-09-11,Prayagraj,2.0,Satisfactory,60,"O3, PM2.5"
2022-09-12,Prayagraj,3.0,Good,46,"O3, PM10, PM2.5"
2022-09-13,Prayagraj,2.0,Good,48,"O3, PM2.5"
2022-09-14,Prayagraj,2.0,Good,42,"O3, PM2.5"
2022-09-15,Prayagraj,3.0,Good,35,"O3, PM2.5, SO2"
2022-09-16,Prayagraj,3.0,Good,36,"O3, PM2.5, SO2"
2022-09-17,Prayagraj,3.0,Good,44,"PM10, PM2.5"
2022-09-18,Prayagraj,3.0,Satisfactory,58,"PM10, PM2.5"
2022-09-19,Prayagraj,3.0,Satisfactory,77,"PM10, PM2.5"
2022-09-20,Prayagraj,3.0,Satisfactory,61,"PM10, PM2.5"
2022-09-21,Prayagraj,3.0,Good,41,"O3, PM2.5, SO2"
2022-09-22,Prayagraj,2.0,Good,48,"PM2.5, SO2"
2022-09-23,Prayagraj,3.0,Satisfactory,59,"PM10, PM2.5"
2022-09-24,Prayagraj,2.0,Good,42,PM10
2022-09-25,Prayagraj,2.0,Satisfactory,68,PM10
2022-09-26,Prayagraj,1.0,Satisfactory,65,PM10
2022-09-27,Prayagraj,2.0,Satisfactory,63,"PM10, PM2.5"
2022-09-28,Prayagraj,3.0,Satisfactory,86,"PM10, PM2.5"
2022-09-29,Prayagraj,3.0,Moderate,103,"PM10, PM2.5"
2022-09-30,Prayagraj,3.0,Moderate,118,PM10
2022-10-01,Prayagraj,3.0,Moderate,124,"PM10, PM2.5"
2022-10-02,Prayagraj,3.0,Satisfactory,81,"PM10, PM2.5"
2022-10-03,Prayagraj,3.0,Moderate,153,PM2.5
2022-10-04,Prayagraj,3.0,Satisfactory,86,PM2.5
2022-10-05,Prayagraj,2.0,Good,50,"PM2.5, SO2"
2022-10-06,Prayagraj,2.0,Good,44,"PM2.5, SO2"
2022-10-07,Prayagraj,3.0,Good,45,"O3, PM10, PM2.5"
2022-10-08,Prayagraj,3.0,Good,50,"O3, PM2.5, SO2"
2022-10-09,Prayagraj,3.0,Satisfactory,76,PM2.5
2022-10-10,Prayagraj,3.0,Satisfactory,53,"O3, PM2.5"
2022-10-11,Prayagraj,3.0,Good,41,"O3, PM2.5, SO2"
2022-10-12,Prayagraj,3.0,Good,41,"O3, SO2"
2022-10-13,Prayagraj,3.0,Satisfactory,64,"PM10, PM2.5"
2022-10-14,Prayagraj,3.0,Satisfactory,64,PM2.5
2022-10-15,Prayagraj,3.0,Satisfactory,76,"PM10, PM2.5"
2022-10-16,Prayagraj,3.0,Satisfactory,93,"PM10, PM2.5"
2022-10-17,Prayagraj,3.0,Moderate,102,"PM10, PM2.5"
2022-10-18,Prayagraj,3.0,Satisfactory,92,"PM10, PM2.5"
2022-10-19,Prayagraj,3.0,Moderate,117,"PM10, PM2.5"
2022-10-20,Prayagraj,3.0,Moderate,140,"O3, PM2.5"
2022-10-21,Prayagraj,3.0,Moderate,148,"PM10, PM2.5"
2022-10-22,Prayagraj,3.0,Moderate,134,PM2.5
2022-10-23,Prayagraj,3.0,Moderate,162,PM2.5
2022-10-24,Prayagraj,3.0,Moderate,121,PM2.5
2022-10-25,Prayagraj,3.0,Moderate,139,PM2.5
2022-10-26,Prayagraj,3.0,Moderate,160,PM2.5
2022-10-27,Prayagraj,3.0,Moderate,196,PM2.5
2022-10-28,Prayagraj,3.0,Moderate,168,PM2.5
2022-10-29,Prayagraj,3.0,Poor,212,PM2.5
2022-10-30,Prayagraj,3.0,Poor,203,PM2.5
2022-10-31,Prayagraj,3.0,Poor,204,PM2.5
2022-11-01,Prayagraj,2.0,Poor,212,PM2.5
2022-11-02,Prayagraj,3.0,Moderate,136,PM2.5
2022-11-03,Prayagraj,3.0,Moderate,128,"PM10, PM2.5"
2022-11-04,Prayagraj,3.0,Poor,204,PM2.5